Time+03,TemperatureF,Dew PointF,Humidity,Sea Level PressureIn,VisibilityMPH,Wind Direction,Wind SpeedMPH,Gust SpeedMPH,PrecipitationIn,Events,Conditions,WindDirDegrees,DateUTC
12:00 AM,80.6,66.2,61,29.80,-9999.0,Calm,Calm,-,N/A,,Clear,0,2013-05-06 21:00:00
12:30 AM,80.6,64.4,58,29.80,-9999.0,NNE,3.5,-,N/A,,Clear,30,2013-05-06 21:30:00
1:00 AM,80.6,64.4,58,29.77,-9999.0,North,3.5,-,N/A,,Clear,350,2013-05-06 22:00:00
1:30 AM,80.6,62.6,54,29.77,-9999.0,North,4.6,-,N/A,,Clear,350,2013-05-06 22:30:00
2:00 AM,82.4,68.0,62,29.77,-9999.0,Variable,1.2,-,N/A,,Clear,0,2013-05-06 23:00:00
2:30 AM,80.6,64.4,58,29.77,-9999.0,Variable,2.3,-,N/A,,Clear,0,2013-05-06 23:30:00
3:00 AM,79,63,49,29.77,7,SW,3.5,,,,Clear,220,2013-05-07 00:00:00
3:00 AM,80.6,62.6,54,29.77,-9999.0,SW,3.5,-,N/A,,Clear,220,2013-05-07 00:00:00
4:00 AM,78.8,62.6,57,29.77,-9999.0,Variable,1.2,-,N/A,,Clear,0,2013-05-07 01:00:00
4:30 AM,80.6,66.2,61,29.77,-9999.0,Variable,2.3,-,N/A,,Clear,0,2013-05-07 01:30:00
5:00 AM,80.6,62.6,54,29.80,5.0,WSW,3.5,-,N/A,,Unknown,250,2013-05-07 02:00:00
5:30 AM,80.6,60.8,51,29.80,5.0,WSW,4.6,-,N/A,,Unknown,250,2013-05-07 02:30:00
6:00 AM,82.4,60.8,48,29.80,5.0,SW,4.6,-,N/A,,Unknown,220,2013-05-07 03:00:00
6:30 AM,80.6,62.6,54,29.83,5.0,SW,5.8,-,N/A,,Unknown,220,2013-05-07 03:30:00
7:00 AM,84.2,60.8,45,29.83,3.1,SW,6.9,-,N/A,,Smoke,230,2013-05-07 04:00:00
7:30 AM,86.0,57.2,37,29.86,3.7,SW,6.9,-,N/A,,Unknown,220,2013-05-07 04:30:00
8:00 AM,87.8,57.2,35,29.86,5.0,WSW,5.8,-,N/A,,Unknown,240,2013-05-07 05:00:00
9:00 AM,89,58,25,29.88,5,SW,9.2,,,,Widespread Dust,220,2013-05-07 06:00:00
9:00 AM,89.6,59.0,36,29.86,5.0,SW,9.2,-,N/A,,Unknown,220,2013-05-07 06:00:00
9:30 AM,89.6,59.0,36,29.86,5.0,SW,6.9,-,N/A,,Unknown,220,2013-05-07 06:30:00
10:00 AM,93.2,57.2,30,29.86,-9999.0,SW,6.9,-,N/A,,Clear,220,2013-05-07 07:00:00
10:30 AM,93.2,53.6,26,29.86,-9999.0,SSW,5.8,-,N/A,,Clear,200,2013-05-07 07:30:00
11:00 AM,95.0,55.4,26,29.86,-9999.0,South,6.9,-,N/A,,Clear,190,2013-05-07 08:00:00
11:30 AM,95.0,57.2,28,29.83,-9999.0,SSW,3.5,-,N/A,,Clear,210,2013-05-07 08:30:00
12:00 PM,96.8,57.2,27,29.83,-9999.0,SSW,4.6,-,N/A,,Clear,210,2013-05-07 09:00:00
12:30 PM,96.8,55.4,25,29.83,-9999.0,WSW,3.5,-,N/A,,Clear,240,2013-05-07 09:30:00
1:00 PM,96.8,55.4,25,29.80,-9999.0,ESE,5.8,-,N/A,,Clear,110,2013-05-07 10:00:00
1:30 PM,96.8,57.2,27,29.80,-9999.0,East,9.2,-,N/A,,Clear,80,2013-05-07 10:30:00
2:00 PM,96.8,55.4,25,29.80,-9999.0,East,10.4,-,N/A,,Clear,90,2013-05-07 11:00:00
2:30 PM,96.8,55.4,25,29.77,-9999.0,ESE,11.5,-,N/A,,Clear,110,2013-05-07 11:30:00
3:00 PM,96,57,18,29.78,7,SE,10.4,,,,Clear,130,2013-05-07 12:00:00
3:00 PM,96.8,57.2,27,29.77,-9999.0,SE,10.4,-,N/A,,Clear,130,2013-05-07 12:00:00
3:30 PM,96.8,55.4,25,29.77,-9999.0,ESE,11.5,-,N/A,,Clear,120,2013-05-07 12:30:00
4:00 PM,95.0,55.4,26,29.74,-9999.0,SE,11.5,-,N/A,,Clear,130,2013-05-07 13:00:00
4:30 PM,93.2,53.6,26,29.74,5.6,SE,10.4,-,N/A,,Unknown,130,2013-05-07 13:30:00
5:00 PM,93.2,55.4,28,29.74,5.0,SE,10.4,-,N/A,,Unknown,130,2013-05-07 14:00:00
5:30 PM,91.4,57.2,31,29.74,5.0,SE,10.4,-,N/A,,Unknown,130,2013-05-07 14:30:00
6:00 PM,89.6,57.2,33,29.74,5.0,SE,9.2,-,N/A,,Unknown,140,2013-05-07 15:00:00
6:30 PM,89.6,59.0,36,29.74,5.0,SE,6.9,-,N/A,,Unknown,140,2013-05-07 15:30:00
7:00 PM,86.0,68.0,55,29.77,-9999.0,NE,6.9,-,N/A,,Clear,50,2013-05-07 16:00:00
7:30 PM,87.8,62.6,43,29.77,-9999.0,ENE,5.8,-,N/A,,Clear,60,2013-05-07 16:30:00
8:00 PM,86.0,62.6,45,29.77,5.6,ENE,5.8,-,N/A,,Unknown,70,2013-05-07 17:00:00
8:30 PM,82.4,73.4,74,29.80,-9999.0,NNE,5.8,-,N/A,,Clear,30,2013-05-07 17:30:00
9:00 PM,83,71,60,29.80,6,East,4.6,,,,Clear,80,2013-05-07 18:00:00
9:00 PM,82.4,71.6,70,29.80,-9999.0,East,4.6,-,N/A,,Clear,80,2013-05-07 18:00:00
9:30 PM,82.4,71.6,70,29.80,-9999.0,NE,4.6,-,N/A,,Clear,50,2013-05-07 18:30:00
10:00 PM,82.4,71.6,70,29.80,-9999.0,NE,4.6,-,N/A,,Clear,50,2013-05-07 19:00:00
10:30 PM,82.4,69.8,66,29.80,-9999.0,NNE,3.5,-,N/A,,Clear,30,2013-05-07 19:30:00
11:00 PM,84.2,64.4,51,29.83,0.9,WSW,13.8,-,N/A,,Mostly Cloudy,250,2013-05-07 20:00:00
11:30 PM,82.4,62.6,51,29.83,0.7,West,11.5,-,N/A,,Unknown,270,2013-05-07 20:30:00